Simultaneous Nadir Overpasses (SNOs) Predictions

Prediction of SNOs between NOAA-19 and TERRA Satellite Orbit:

Table of predicted SNOs for the next 14.0 days since TLE Epoch: 12/28/2013
Index Date (NOAA-19) Time (NOAA-19) Lat,Lon (NOAA-19) SZA (NOAA-19 ) Date (TERRA) Time (TERRA) Lat,Lon (TERRA) SZA (TERRA ) Distance(km) Time Diff (sec)
1 12/29/2013 01:29:20 -70.05, -21.71 86.84 12/29/2013 01:30:00 -70.05, -21.73 86.83 1.29 40
2 12/29/2013 02:20:22 69.91, 145.73 93.03 12/29/2013 02:19:28 69.90, 145.69 93.01 2.03 54
3 12/31/2013 06:13:27 -70.11, -92.81 86.92 12/31/2013 06:14:17 -70.10, -92.75 86.94 2.55 50
4 12/31/2013 07:04:29 69.95, 74.67 92.92 12/31/2013 07:03:45 69.94, 74.68 92.91 0.67 44
5 01/02/2014 10:57:33 -70.13,-163.84 87.09 01/02/2014 10:58:34 -70.13,-163.78 87.09 2.40 61
6 01/02/2014 11:48:36 69.99, 3.60 92.78 01/02/2014 11:48:02 69.97, 3.64 92.75 3.10 34
7 01/04/2014 15:41:39 -70.15, 125.11 87.28 01/04/2014 15:42:51 -70.14, 125.17 87.29 2.43 72
8 01/04/2014 16:32:42 69.99, -67.41 92.56 01/04/2014 16:32:19 69.98, -67.42 92.54 1.80 23
9 01/06/2014 20:25:52 -70.55, 53.46 87.13 01/06/2014 20:27:03 -70.41, 54.49 87.28 41.23 71
10 01/06/2014 21:16:48 70.01,-138.44 92.32 01/06/2014 21:16:35 70.03,-138.42 92.34 2.37 13
11 01/06/2014 22:07:27 -69.03, 30.27 88.67 01/06/2014 22:06:20 -69.10, 27.96 88.59 92.30 67
12 01/09/2014 01:10:05 -70.96, -18.23 87.00 01/09/2014 01:11:12 -70.83, -15.95 87.15 84.03 67
13 01/09/2014 02:00:54 70.03, 150.52
